Regional Weather Roundup
Issued by NWS Bismarck, ND

Home | Current Version | Previous Version | Text Only | Print | Product List | Glossary On
Versions: 1 2 3 4 5 6 7 8 9 10 11 12 13 14 15 16 17 18 19 20 21 22 23 24 25 26 27 28 29 30 31 32 33 34 35 36 37 38 39 40 41 42 43 44 45 46 47 48 49 50
000
ASUS43 KBIS 221510
RWRBIS

NWR BROADCAST TEXT
NATIONAL WEATHER SERVICE BISMARCK ND
900 AM CST SUN JAN 22 2017

NOTE: "FAIR" INDICATES FEW OR NO CLOUDS BELOW 12,000 FEET WITH NO
SIGNIFICANT WEATHER AND/OR OBSTRUCTIONS TO VISIBILITY.


CITY           SKY/WX    TMP DP  RH WIND       PRES   REMARKS
WILLISTON      CLOUDY    29  26  89 W10       29.77R WCI  20
MINOT          CLOUDY    31  27  85 W16       29.71R WCI  20
MINOT AFB      CLOUDY    29  25  84 W18       29.70R WCI  17
BISMARCK       CLOUDY    29  27  92 W7        29.77R FOG
DICKINSON      CLOUDY    24  22  91 NW12      29.75R FOG     WCI  13
GARRISON         N/A     29  28  96 W10       29.73R WCI  20
HETTINGER ARPT CLOUDY    23  20  88 NW20      29.79R WCI   8
JAMESTOWN      CLOUDY    30  29  96 W9        29.71R FOG
CARRINGTON     CLOUDY    32  30  93 NW13      29.72R
HAZEN            N/A    N/A N/A N/A W13       29.78R
MANDAN         PTSUNNY   27  27 100 W13       29.76R WCI  16
RUGBY            N/A     27  27 100 NW10      29.70R FOG     WCI  17
STANLEY        CLOUDY    28  30 100 W12       29.74R WCI  18
TIOGA          CLOUDY    28  28 100 W14G20    29.75R WCI  17
WATFORD CITY   CLOUDY    27  27 100 W8        29.78R FOG     WCI  18
$$

CITY           SKY/WX    TMP DP  RH WIND       PRES   REMARKS
GRAND FORKS    CLOUDY    34  31  88 W6        29.70R FOG
GRAND FORKS AF CLOUDY    33  32  96 W5        29.70R
DEVILS LAKE    CLOUDY    28  27  96 W13       29.69R FOG     WCI  17
FARGO          CLOUDY    35  33  92 W3        29.71R FOG
CAVALIER       FOG       32  32 100 CALM      29.69R VSB 1
GRAFTON        CLOUDY    32  32 100 W5        29.71R FOG
GWINNER        CLOUDY    32  32 100 NW13      29.73R
ROLLA            N/A    N/A N/A N/A MISG        N/A
$$

CITY           SKY/WX    TMP DP  RH WIND       PRES   REMARKS
ABERDEEN       CLOUDY    29  24  82 NW14      29.77R WCI  18
MOBRIDGE       CLOUDY    15  11  83 S3        29.77R
BUFFALO          N/A     20  16  84 NW9       29.72R WCI   9
RAPID CITY     FAIR      28  19  69 NW10      29.80R WCI  19
GLASGOW        CLOUDY    27  25  92 W12       29.81R WCI  17
SIDNEY         CLOUDY    28  26  92 W9        29.80R WCI  19
WOLF POINT     CLOUDY    29  25  85 W6        29.81R
GLENDIVE       CLOUDY    27  25  92 NW10      29.82R WCI  17
MILES CITY     FAIR      11   7  84 S6        29.84R FOG     WCI   1
BAKER          CLOUDY    23  21  92 W15       29.80R FOG     WCI  10
$$

CITY           SKY/WX    TMP DP  RH WIND       PRES   REMARKS
BILLINGS       FAIR      25  17  72 SW20      29.83R WCI  11
GREAT FALLS    CLOUDY    22  17  81 E6        29.80R WCI  14
REGINA         CLOUDY    27  23  86 NW13      29.72R WCI  16
ESTEVAN        CLOUDY    27  27 100 W8        29.73R FOG     WCI  18
$$





USA.gov is the U.S. government's official web portal to all federal, state and local government web resources and services.